Temp
7 7 6 6 6 6 5 5 5 4 4 4 4 3 3 3 3 3 3 3 3 3 3 3 3 3 3 3 3 3 3 3 3 3 3 3 3 3 3 3 3 3 3 3 3 3 3 2 2 2 2 2 1 1 1 1 1 1 1 1 1 1 0 0 0 0 0 0 0
7 7 6 6 6 5 5 5 4 4 4 4 3 3 3 3 3 3 3 3 3 3 3 3 3 3 3 3 3 3 3 3 3 3 3 3 3 3 3 3 3 3 3 3 3 3 2 2 2 2 2 1 1 1 1 1 1 1 1 1 1 0 0 0 0 0 0 0 0
7 6 6 6 6 5 5 4 4 4 4 4 3 3 3 3 3 3 3 3 3 3 3 3 3 3 3 3 3 3 3 2 2 2 2 2 2 3 3 3 3 3 3 3 3 3 2 2 2 2 2 1 1 1 1 1 1 1 0 0 0 0 0 0 0 -0 -0 -0 0
6 6 6 6 6 5 5 5 4 4 4 4 4 4 4 4 3 3 3 3 3 3 3 3 3 3 3 3 3 3 3 2 2 2 2 2 2 2 2 3 3 3 3 3 3 3 2 2 2 2 2 1 1 1 1 1 1 0 0 0 0 0 0 0 -0 -0 0 0 0
6 6 6 6 6 6 5 5 5 4 4 4 4 4 4 4 3 3 3 3 3 3 3 3 3 3 3 3 3 3 3 2 2 2 2 2 2 2 2 2 3 3 3 3 3 3 2 2 2 2 2 1 1 1 1 1 1 0 0 0 0 0 0 0 -0 -0 -0 -0 -0
6 6 6 6 6 6 6 5 5 5 4 4 4 4 4 3 3 3 3 3 3 3 3 3 3 3 3 3 3 3 3 3 2 2 2 2 2 2 2 2 3 3 2 2 2 2 2 2 2 2 2 1 1 1 1 1 1 0 0 0 0 0 0 0 0 -0 -0 -0 -0
6 6 6 6 6 6 5 5 5 5 4 4 4 4 3 3 3 3 3 3 3 3 3 3 3 3 3 3 3 3 3 3 2 2 2 2 2 2 2 2 2 2 2 2 2 2 2 2 2 1 1 1 1 1 1 1 1 1 0 0 0 0 0 0 0 -0 -0 0 0
6 6 6 6 6 6 5 5 5 4 4 4 3 3 3 3 3 3 3 3 3 3 3 3 3 3 3 3 3 2 2 2 2 2 2 2 2 2 2 2 2 2 2 2 1 1 1 1 1 1 1 1 1 1 1 1 1 1 0 0 0 0 0 0 0 0 0 0 0
6 6 6 6 6 5 5 5 4 4 4 3 3 3 3 3 3 3 3 2 2 2 2 2 2 2 2 2 2 2 2 2 2 1 1 1 2 2 2 2 2 1 1 1 1 1 1 1 1 1 1 1 1 1 1 1 1 0 0 0 0 0 0 0 0 0 0 0 -0
6 6 6 5 5 5 5 4 4 4 4 3 3 3 3 3 3 2 2 2 2 2 2 2 2 2 2 2 2 2 1 1 1 1 1 1 2 2 2 2 1 1 1 1 1 1 1 1 1 1 1 1 1 1 1 1 1 1 0 0 0 0 0 0 0 0 -0 -0 -0
6 6 5 5 5 5 5 4 4 4 3 3 3 3 3 3 2 2 2 2 2 2 2 2 2 2 2 2 2 1 1 1 1 1 1 1 2 2 2 2 1 1 1 1 1 1 1 1 1 1 1 1 1 1 1 1 1 1 1 0 0 0 0 0 0 0 0 -0 -0
6 5 5 5 5 4 4 4 4 3 3 3 3 3 3 2 2 2 2 2 2 2 2 2 2 2 2 2 2 2 2 2 2 1 1 1 1 2 2 2 1 1 1 1 1 1 1 1 1 1 1 1 1 0 1 1 1 1 1 1 1 1 1 1 1 0 0 0 0
5 5 5 5 4 4 4 4 3 3 3 3 3 3 2 2 2 2 2 2 2 2 2 2 2 2 2 2 2 2 2 2 2 2 2 2 2 2 2 2 2 2 2 2 2 1 1 1 1 1 1 1 1 1 1 1 1 1 1 1 1 0 0 0 0 0 0 0 0
5 5 5 5 4 4 4 3 3 3 3 3 3 2 2 2 2 2 2 2 2 2 2 2 2 2 2 2 2 2 2 2 2 2 2 2 2 2 2 2 2 2 2 2 2 2 1 1 1 1 1 1 1 1 1 1 1 1 0 0 0 0 0 -0 -0 -0 -0 -0 -0
5 5 5 4 4 4 3 3 3 3 2 2 2 2 2 2 2 2 1 1 2 2 2 2 2 2 2 2 2 2 2 2 2 2 2 2 2 2 2 2 2 2 2 2 2 2 1 1 1 1 1 1 1 1 1 1 0 0 0 -0 -0 -0 -0 -0 -0 -1 -1 -1 -1
5 5 5 4 4 4 3 3 3 2 2 2 2 2 2 2 2 2 2 2 2 2 2 2 2 2 2 2 2 2 2 2 2 2 2 2 2 2 2 2 2 2 2 2 2 2 1 1 1 1 1 1 1 1 0 0 0 0 -0 -0 -0 -0 -1 -1 -1 -1 -1 -1 -1
5 5 4 4 4 3 3 3 2 2 2 2 2 2 2 2 2 2 2 2 2 2 2 2 2 2 2 2 2 2 2 2 2 2 2 2 2 2 2 2 2 2 2 2 2 1 1 1 1 1 1 1 1 0 0 0 0 0 -0 -0 -1 -1 -1 -1 -1 -1 -1 -1 -2
5 4 4 4 4 3 3 2 2 2 2 2 2 2 2 2 2 2 2 2 2 2 2 2 2 2 2 2 2 2 2 2 2 2 2 2 2 2 2 2 1 1 1 1 1 1 1 1 1 1 0 0 0 0 0 -0 -0 -0 -0 -1 -1 -1 -1 -1 -2 -2 -2 -2 -2
4 4 4 4 3 3 3 2 2 2 2 2 2 2 2 2 2 2 2 2 2 2 2 2 2 2 2 2 2 2 2 2 2 2 2 2 2 2 1 1 1 1 1 1 1 1 0 0 0 0 0 -0 -0 -0 -0 -1 -1 -1 -1 -1 -1 -2 -2 -2 -2 -2 -2 -2 -2
4 4 4 3 3 3 2 2 2 2 2 2 2 2 2 2 2 2 2 2 2 2 2 2 2 2 2 2 2 2 2 2 2 2 2 1 1 1 1 1 1 1 1 1 0 0 0 -0 -0 -0 -0 -0 -1 -1 -1 -1 -1 -1 -2 -2 -2 -2 -2 -2 -2 -2 -2 -3 -3
4 4 3 3 3 3 2 2 2 2 2 2 1 1 1 1 1 2 2 2 1 1 1 1 1 2 2 2 1 1 1 2 2 1 1 1 1 1 1 1 1 1 0 0 0 0 -0 -0 -1 -1 -1 -1 -1 -1 -1 -2 -2 -2 -2 -2 -3 -3 -3 -3 -3 -3 -3 -3 -3
4 4 3 3 3 2 2 2 2 2 1 1 1 1 1 1 1 1 1 1 1 1 1 1 1 1 1 1 1 1 1 1 1 1 1 1 1 1 1 0 0 0 0 0 -0 -0 -1 -1 -1 -1 -1 -1 -2 -2 -2 -2 -2 -3 -3 -3 -3 -3 -3 -3 -3 -3 -3 -3 -4
4 3 3 3 2 2 2 2 2 1 1 1 1 1 1 1 1 1 1 1 1 1 1 1 1 1 1 1 1 1 1 1 1 1 1 1 1 0 0 0 0 -0 -0 -1 -1 -1 -1 -1 -1 -1 -1 -2 -2 -2 -2 -3 -3 -3 -3 -3 -4 -4 -4 -4 -4 -4 -4 -4 -4
4 3 3 3 2 2 2 2 1 1 1 1 1 1 1 1 1 1 1 1 1 1 1 1 1 1 1 1 1 1 1 1 1 1 0 0 0 0 -0 -0 -0 -0 -1 -1 -1 -1 -1 -2 -2 -2 -2 -2 -2 -3 -3 -3 -3 -4 -4 -4 -4 -4 -4 -4 -4 -4 -5 -5 -5
3 3 3 2 2 2 2 2 1 1 1 1 1 1 1 1 1 1 1 1 1 1 1 1 1 1 1 1 1 0 0 0 0 0 0 0 -0 -0 -0 -0 -1 -1 -1 -2 -2 -2 -2 -2 -2 -2 -3 -3 -3 -3 -3 -4 -4 -4 -4 -5 -5 -5 -5 -5 -5 -5 -5 -5 -5
3 3 3 2 2 2 2 1 1 1 1 1 1 1 1 1 1 1 1 1 1 1 1 1 1 1 1 1 0 0 -0 0 -0 -0 -0 -0 -0 -0 -1 -1 -1 -1 -2 -2 -2 -2 -2 -2 -2 -3 -3 -3 -3 -4 -4 -4 -4 -5 -5 -5 -5 -5 -6 -6 -6 -6 -6 -6 -6
3 3 3 2 2 2 2 1 1 1 1 1 1 1 1 1 1 1 1 1 1 1 1 1 1 1 1 1 0 -0 -0 -0 -0 -0 -0 -1 -1 -1 -1 -1 -1 -2 -2 -2 -2 -2 -3 -3 -3 -3 -4 -4 -4 -4 -5 -5 -5 -5 -5 -6 -6 -6 -6 -6 -6 -6 -6 -6 -6
3 3 3 2 2 2 2 1 1 1 1 1 1 1 1 1 1 1 1 1 1 1 1 1 1 1 1 0 0 -0 -1 -1 -1 -1 -1 -1 -1 -1 -1 -1 -2 -2 -2 -2 -3 -3 -3 -4 -4 -4 -4 -4 -5 -5 -5 -5 -5 -6 -6 -6 -6 -6 -6 -6 -7 -7 -7 -7 -7
3 3 3 2 2 2 2 1 1 1 1 1 1 1 1 1 1 1 1 1 1 1 1 0 0 1 0 0 -0 -1 -1 -1 -1 -1 -1 -1 -1 -1 -1 -2 -2 -2 -2 -3 -3 -3 -4 -4 -4 -5 -5 -5 -5 -5 -5 -6 -6 -6 -6 -6 -6 -7 -7 -7 -7 -7 -7 -7 -7
3 3 3 2 2 2 2 1 1 1 1 1 1 1 1 1 1 1 1 0 0 0 0 0 0 0 0 -0 -0 -1 -1 -1 -1 -1 -1 -1 -1 -1 -2 -2 -2 -2 -3 -3 -3 -4 -4 -4 -5 -5 -5 -5 -5 -6 -6 -6 -6 -6 -6 -7 -7 -7 -7 -7 -7 -7 -7 -7 -7
3 3 2 2 2 2 2 1 1 1 1 1 1 1 1 1 1 0 0 0 0 0 0 0 0 0 0 -0 -1 -1 -1 -1 -1 -1 -1 -1 -2 -2 -2 -2 -2 -3 -3 -3 -4 -4 -4 -5 -5 -5 -5 -5 -6 -6 -6 -6 -6 -7 -7 -7 -7 -7 -8 -8 -8 -8 -8 -8 -7
3 2 2 2 2 2 1 1 1 1 1 1 1 1 1 1 0 0 0 0 0 0 0 0 0 0 -0 -0 -1 -1 -1 -1 -1 -1 -1 -2 -2 -2 -2 -2 -3 -3 -3 -3 -4 -4 -5 -5 -5 -5 -5 -5 -6 -6 -6 -6 -7 -7 -7 -7 -7 -8 -8 -8 -8 -8 -8 -8 -8
3 2 2 2 2 1 1 1 1 1 1 1 1 1 1 0 0 0 0 0 0 0 0 0 0 -0 -0 -0 -1 -1 -1 -1 -1 -1 -2 -2 -2 -2 -2 -3 -3 -3 -3 -3 -4 -4 -5 -5 -5 -5 -5 -6 -6 -6 -6 -7 -7 -7 -7 -7 -8 -8 -8 -8 -8 -8 -8 -8 -8
2 2 2 2 2 1 1 1 1 1 1 1 1 1 0 0 0 0 0 0 0 0 0 -0 -0 -0 -0 -0 -1 -1 -1 -1 -1 -2 -2 -2 -2 -2 -3 -3 -3 -3 -4 -4 -4 -4 -5 -5 -5 -5 -6 -6 -6 -6 -7 -7 -7 -7 -7 -7 -8 -8 -8 -8 -8 -8 -8 -8 -8
2 2 2 2 1 1 1 1 1 1 1 1 1 0 0 0 0 -0 -0 -0 0 0 -0 -0 -0 -0 -0 -0 -1 -1 -1 -2 -2 -2 -2 -2 -2 -3 -3 -3 -3 -3 -4 -4 -4 -4 -5 -5 -5 -5 -6 -6 -6 -6 -7 -7 -7 -7 -7 -8 -8 -8 -8 -8 -8 -8 -8 -8 -8
2 2 2 1 1 1 1 1 1 1 1 0 0 0 0 0 0 -0 -0 -0 0 0 0 -0 -0 -0 -0 -1 -1 -1 -2 -2 -2 -2 -2 -2 -3 -3 -3 -3 -3 -4 -4 -4 -4 -5 -5 -5 -5 -6 -6 -6 -6 -6 -7 -7 -7 -7 -8 -8 -8 -8 -8 -8 -8 -8 -8 -8 -8
2 2 1 1 1 1 1 1 1 1 0 0 0 0 0 0 0 0 -0 -0 -0 -0 -0 -0 -0 -0 -0 -1 -1 -1 -2 -2 -2 -2 -2 -3 -3 -3 -3 -3 -4 -4 -4 -4 -5 -5 -5 -5 -6 -6 -6 -6 -6 -6 -7 -7 -7 -8 -8 -8 -8 -8 -8 -8 -8 -8 -8 -8 -8
2 2 1 1 1 1 1 1 1 0 0 0 0 0 0 0 0 0 -0 -0 -0 -0 -0 -0 -0 -1 -1 -1 -1 -1 -2 -2 -2 -2 -3 -3 -3 -3 -3 -4 -4 -4 -4 -5 -5 -5 -5 -6 -6 -6 -7 -6 -6 -7 -7 -7 -7 -8 -8 -8 -8 -8 -8 -8 -8 -8 -8 -8 -9
2 2 1 1 1 1 1 1 0 0 0 0 0 0 0 0 0 -0 -0 -0 -0 -0 -0 -0 -1 -1 -1 -1 -1 -1 -2 -2 -2 -3 -3 -3 -3 -3 -4 -4 -4 -4 -5 -5 -5 -5 -6 -6 -6 -7 -7 -7 -7 -7 -7 -7 -8 -8 -8 -8 -8 -8 -8 -8 -8 -8 -8 -8 -9
2 1 1 1 1 1 1 0 0 0 0 0 0 0 0 0 0 -0 -0 -0 -0 -0 -0 -1 -1 -1 -1 -1 -1 -2 -2 -2 -2 -3 -3 -3 -3 -4 -4 -4 -4 -5 -5 -5 -5 -6 -6 -6 -7 -7 -7 -7 -7 -7 -7 -7 -8 -8 -8 -8 -8 -8 -8 -8 -8 -9 -9 -9 -9
2 1 1 1 1 1 1 0 0 0 0 0 0 0 0 0 -0 -0 -0 -0 -0 -0 -0 -1 -1 -1 -1 -1 -1 -2 -2 -2 -3 -3 -3 -3 -3 -4 -4 -4 -5 -5 -5 -5 -6 -6 -6 -6 -7 -7 -7 -7 -7 -7 -7 -8 -8 -8 -8 -8 -8 -8 -8 -9 -9 -9 -9 -9 -9
Height
871 870 870 869 869 868 867 866 865 864 863 863 862 861 860 859 858 857 857 856 855 854 853 852 851 850 849 848 847 847 846 846 845 845 844 843 843 842 841 841 840 839 839 838 837 837 836 836 835 834 834 833 832 832 831 831 831 830 830 829 829 828 828 827 826 826 825 825 825
870 870 870 869 868 867 866 865 864 864 863 862 861 860 860 859 858 857 856 855 854 853 852 851 850 849 848 847 847 846 846 845 845 844 844 843 842 841 841 840 840 839 838 837 837 836 836 835 835 834 834 833 833 832 832 831 831 831 830 829 829 828 828 827 826 826 826 825 825
870 869 869 868 867 866 866 865 864 863 862 861 861 860 859 858 857 856 856 855 854 853 851 851 849 848 848 847 846 846 845 844 844 843 843 842 842 841 841 840 839 839 838 837 837 836 836 836 835 835 834 834 833 832 832 831 831 831 830 830 829 829 828 827 827 826 826 826 825
869 869 868 868 867 866 865 864 864 863 862 861 860 859 859 858 857 856 855 854 853 852 851 850 849 848 847 846 846 845 844 844 843 843 842 842 841 841 840 840 839 838 838 837 836 836 836 835 835 835 834 834 833 832 832 831 831 831 831 830 829 829 828 828 827 826 826 826 825
869 869 868 867 867 866 865 864 863 862 861 861 860 859 858 857 857 856 855 854 853 852 851 850 849 848 847 846 845 845 844 843 843 842 842 841 841 840 840 839 839 838 837 837 836 836 836 835 835 834 834 833 833 832 832 831 831 831 830 830 829 829 828 828 827 826 826 826 825
869 868 868 867 866 866 865 864 863 862 861 861 860 859 858 857 856 856 855 854 853 852 851 850 848 847 846 846 845 844 843 843 842 842 841 841 840 840 839 839 838 838 837 837 836 836 836 835 835 834 834 833 832 832 831 831 831 830 830 829 829 828 828 827 827 826 826 825 825
869 869 868 867 866 866 865 864 863 862 861 861 860 859 858 857 856 856 855 854 852 851 850 849 848 847 846 846 845 844 843 842 842 841 841 841 840 840 839 839 838 838 837 837 836 836 835 835 834 834 833 833 832 831 831 831 830 830 829 829 828 828 827 827 826 826 825 825 824
869 868 868 867 866 866 865 864 863 862 861 860 860 859 858 857 856 855 854 853 852 851 850 849 848 847 846 846 845 844 843 842 842 841 841 840 840 839 839 838 838 838 837 837 836 836 835 835 834 833 833 832 832 831 831 830 830 829 829 828 828 827 826 826 826 825 825 824 824
869 868 868 867 866 865 864 863 862 861 861 860 859 859 858 857 856 855 854 853 852 851 851 850 849 848 846 846 845 844 843 843 842 841 841 840 840 839 839 838 838 837 837 836 836 836 835 834 834 833 832 832 831 831 830 830 829 829 828 827 827 826 826 826 825 824 824 823 823
869 868 867 866 866 865 864 863 862 861 861 860 859 858 857 856 856 855 854 853 852 851 851 850 849 848 847 846 845 844 843 843 842 841 841 840 840 839 839 838 838 837 837 836 836 835 835 834 833 832 832 831 830 830 829 829 828 828 827 827 826 826 825 825 824 824 823 822 822
868 868 867 866 865 864 863 862 861 861 860 859 859 858 857 856 856 855 854 853 852 851 851 850 849 848 847 846 845 844 844 843 842 841 841 841 840 840 839 838 838 837 837 836 835 835 834 833 832 831 831 830 830 829 828 828 827 827 826 826 826 825 824 824 823 823 822 821 821
868 867 866 866 865 864 863 862 861 861 860 859 858 857 857 856 855 855 854 853 852 851 851 850 849 848 847 846 846 845 844 843 842 842 841 841 840 840 839 838 838 837 836 836 835 834 833 832 831 831 830 829 829 828 828 827 826 826 826 825 825 824 823 823 822 822 821 820 820
867 866 866 865 864 863 862 861 861 860 859 859 858 857 856 856 855 854 854 853 852 851 851 850 849 848 847 846 846 845 844 843 842 842 841 841 840 839 838 838 837 836 836 835 834 833 832 831 831 830 829 829 828 828 827 826 826 826 825 825 824 823 823 822 821 821 820 819 818
867 866 865 864 863 862 861 861 860 859 859 858 857 857 856 855 855 854 853 853 852 851 850 849 849 848 847 846 845 845 844 843 842 841 841 840 839 839 838 837 836 836 835 834 833 833 832 831 831 830 829 829 828 828 827 826 826 825 825 824 823 823 822 821 821 820 819 818 817
866 865 864 863 862 861 861 860 860 859 858 858 857 856 856 855 855 854 853 852 852 851 850 849 848 847 847 846 845 844 844 843 842 841 841 840 839 838 837 836 836 835 835 834 833 832 831 831 830 830 829 829 828 827 826 826 825 825 824 823 822 822 821 820 819 819 818 817 816
865 864 863 862 862 861 860 860 859 858 858 857 856 856 855 855 854 854 853 852 851 851 850 849 848 847 846 846 845 844 843 843 842 841 840 839 838 838 837 836 836 835 834 833 833 832 831 831 830 830 829 828 828 827 826 825 825 824 823 822 822 821 820 819 818 817 816 816 815
864 863 862 862 861 860 860 859 858 858 857 857 856 856 855 855 854 853 853 852 851 850 849 849 848 847 846 846 845 844 843 842 841 841 840 839 838 837 836 836 835 834 834 833 832 832 831 831 830 829 829 828 827 826 826 825 824 823 822 822 821 820 819 818 817 816 815 814 813
863 863 862 861 860 860 859 858 858 857 857 856 856 855 855 854 854 853 852 851 851 850 849 848 847 847 846 845 844 844 843 842 841 841 840 839 838 837 836 836 835 834 834 833 832 832 831 831 830 829 829 828 827 826 825 825 824 823 822 821 820 819 818 817 816 815 814 813 812
863 862 861 860 859 859 858 858 857 857 856 856 856 855 855 854 853 852 852 851 850 849 848 848 847 846 846 845 844 843 842 842 841 840 839 839 838 837 836 836 835 834 834 833 832 832 831 831 830 829 828 827 826 826 825 824 823 822 821 820 819 818 817 816 815 814 813 812 811
862 861 860 859 859 858 858 857 857 856 856 856 855 855 854 853 853 852 851 851 850 849 848 847 846 846 845 845 844 843 842 841 841 840 839 838 838 837 836 836 835 834 833 833 832 831 831 830 829 829 828 827 826 825 824 823 822 821 820 819 818 817 816 815 814 813 812 811 810
861 860 859 859 858 857 857 857 856 856 856 855 855 854 854 853 852 851 851 850 849 848 848 847 846 845 844 844 843 842 841 841 840 839 839 838 837 837 836 836 835 834 833 832 832 831 830 830 829 828 827 826 825 824 823 822 821 820 819 818 817 816 815 814 813 811 811 809 808
860 859 859 858 857 857 856 856 856 856 855 855 854 854 853 852 851 851 850 850 849 848 847 846 845 845 844 843 842 841 841 840 840 839 838 837 837 836 836 835 834 834 833 832 831 831 830 829 828 827 826 825 824 823 822 821 821 820 818 817 816 815 814 813 812 811 809 808 806
859 859 858 857 857 856 856 856 855 855 855 854 853 853 852 851 851 850 850 849 848 847 846 846 845 844 843 842 842 841 840 840 839 838 838 837 836 836 835 835 834 833 832 831 831 830 829 828 827 826 826 825 824 823 822 821 820 819 818 816 815 814 813 811 811 809 808 806 805
858 858 857 857 856 856 855 855 855 854 854 853 853 852 851 851 850 850 849 848 848 847 846 845 844 843 842 842 841 841 840 839 839 838 837 836 836 835 835 834 833 833 832 831 830 829 828 828 827 826 825 824 823 822 821 820 819 818 817 816 814 813 811 810 809 808 806 805 804
858 857 856 856 856 855 855 854 854 854 853 853 852 851 851 850 850 849 848 848 847 846 845 845 844 843 842 841 840 840 839 839 838 838 837 836 836 835 834 834 833 832 832 831 830 829 828 827 826 826 825 824 823 821 821 820 818 817 816 815 813 812 810 809 807 806 805 804 802
857 856 856 856 855 855 854 854 853 853 852 852 851 851 850 850 849 848 847 847 846 845 845 844 843 842 841 841 840 839 839 838 838 837 836 836 835 835 834 833 833 832 831 830 829 828 827 826 826 825 824 823 822 821 820 819 817 816 815 814 812 811 809 807 806 805 803 802 801
856 856 855 855 854 854 854 853 853 852 852 851 851 850 850 849 848 847 847 846 845 845 844 843 842 841 841 840 839 838 838 838 837 837 836 836 835 834 833 833 832 831 831 830 829 828 827 826 825 824 823 822 821 820 819 818 817 816 814 813 811 810 808 807 805 803 802 801 800
855 855 855 854 854 853 853 852 852 851 851 851 850 849 849 848 847 847 846 845 845 844 843 842 841 841 840 839 838 838 838 837 837 836 836 835 835 834 833 832 832 831 830 829 828 827 826 826 825 823 822 821 821 820 818 817 816 815 813 812 811 809 807 806 804 803 801 800 798
855 854 854 853 853 852 852 852 851 851 850 850 849 848 848 847 846 846 845 844 844 843 842 841 841 840 839 838 838 837 837 837 836 836 835 835 834 833 832 832 831 830 829 828 828 827 826 825 824 823 822 821 820 819 818 816 815 814 812 811 810 808 807 805 804 802 801 799 798
854 853 853 852 852 852 851 851 851 850 849 849 848 848 847 846 846 845 844 844 843 842 841 841 840 839 838 837 837 837 837 836 836 836 835 834 834 833 832 831 831 830 829 828 827 826 826 825 824 823 821 821 819 818 817 816 815 813 812 810 809 807 806 804 803 801 800 798 797
853 852 852 851 851 851 851 850 850 849 849 848 847 847 846 846 845 844 843 843 842 841 841 840 839 838 837 837 836 836 836 836 835 835 834 834 833 832 831 831 830 829 828 827 826 826 825 824 823 822 821 820 819 817 816 815 814 812 811 809 808 806 805 803 802 801 799 798 796
852 851 851 851 850 850 850 849 849 848 848 847 846 846 845 845 844 843 842 842 841 840 840 839 838 837 837 836 836 836 836 835 835 834 834 833 832 831 831 830 829 829 828 827 826 825 825 824 823 822 821 819 818 816 815 814 813 811 810 808 807 806 804 802 801 800 798 797 796
851 851 850 850 849 849 849 848 848 847 847 846 846 845 844 844 843 842 841 841 840 839 839 838 837 837 836 836 836 836 835 835 834 833 833 832 832 831 830 830 829 828 827 826 826 825 824 823 822 821 820 818 817 816 814 813 811 810 809 807 806 804 803 802 800 799 797 796 795
850 850 849 849 848 848 848 847 847 846 846 845 845 844 843 843 842 841 841 840 839 838 838 837 836 836 836 836 835 835 835 834 833 833 832 832 831 831 830 829 828 827 826 826 825 824 823 822 821 820 819 817 816 815 813 812 811 809 808 806 805 803 802 801 799 798 796 795 794
849 849 848 848 847 847 847 846 846 846 845 844 844 843 842 842 841 840 840 839 838 838 837 836 836 836 835 835 835 834 834 833 833 832 832 831 831 830 829 828 828 827 826 825 824 823 822 821 820 819 818 817 815 814 812 811 809 808 806 805 803 802 801 799 798 797 796 795 793
848 847 847 847 846 846 846 846 845 845 844 843 843 842 841 841 840 839 839 838 837 837 836 836 836 835 835 834 834 834 833 833 832 832 831 831 830 829 829 828 827 826 825 824 824 823 822 821 820 818 817 816 815 813 811 810 808 807 805 804 802 801 800 798 797 796 795 794 793
847 846 846 846 846 845 845 844 844 844 843 842 842 841 841 840 839 838 838 837 837 836 836 836 835 835 834 834 834 833 833 832 832 831 831 830 829 829 828 827 826 825 825 824 823 822 821 820 819 817 816 815 814 812 811 809 808 806 805 803 801 800 799 797 796 795 794 793 792
846 845 845 845 844 844 844 843 843 842 842 841 841 840 840 839 838 837 837 836 836 836 835 835 835 835 834 834 833 833 832 832 831 831 830 830 829 828 827 826 826 825 824 823 822 821 820 819 818 817 816 815 813 811 810 808 807 806 804 802 801 799 798 797 796 794 793 792 791
845 844 844 844 843 843 843 842 842 841 841 840 840 839 839 838 837 837 836 836 835 835 835 835 834 834 834 833 833 832 832 831 831 830 830 829 828 827 826 826 825 824 823 822 821 821 820 818 817 816 815 814 812 811 809 808 806 805 803 802 800 799 797 796 795 794 792 791 790
843 843 843 842 842 842 841 841 841 841 840 839 839 838 837 837 836 836 836 835 835 834 834 834 834 833 833 833 832 832 831 831 830 830 829 828 827 826 826 825 824 823 823 822 821 820 819 817 816 815 814 813 812 811 809 807 806 804 803 801 800 798 796 795 794 793 792 791 789
842 842 841 841 841 841 841 840 840 840 839 838 838 837 837 836 836 835 835 835 834 834 833 833 833 832 832 832 831 831 831 830 830 829 828 827 826 826 825 824 824 823 822 821 820 819 818 817 816 815 814 813 811 810 809 807 806 804 802 801 799 798 796 795 793 792 791 790 789
Wind_Speed
24 24 23 22 22 20 19 17 16 15 14 13 13 13 13 13 12 12 12 12 12 13 13 14 14 14 13 12 11 12 13 13 14 15 15 15 15 15 15 15 16 15 15 14 13 12 11 11 10 10 9 9 9 9 9 9 9 9 9 10 9 8 8 8 8 8 8 7 7
24 23 23 22 22 21 19 18 17 16 15 14 14 14 15 15 14 13 13 13 14 14 15 16 16 15 13 12 11 11 12 13 14 14 15 15 15 15 15 15 15 15 14 13 12 11 11 11 10 10 9 9 8 8 8 8 8 8 8 8 7 6 6 5 6 5 5 4 4
23 23 23 23 22 21 20 18 17 17 16 15 15 15 15 15 15 14 14 15 15 16 16 17 16 15 14 12 11 10 11 12 13 13 13 14 14 14 14 14 14 13 12 11 11 11 11 10 10 10 9 8 8 8 7 7 7 6 6 6 6 5 4 4 3 3 2 2 2
23 23 23 23 22 22 20 19 18 17 16 16 15 15 16 15 15 15 16 16 17 17 17 17 17 16 14 13 12 11 10 11 12 12 12 13 13 13 13 13 12 11 10 10 10 10 10 10 10 9 9 8 8 8 7 7 7 6 6 6 5 5 4 4 3 2 2 2 2
23 23 23 23 22 22 20 19 18 17 16 15 15 15 15 16 16 16 17 17 17 17 17 16 16 15 14 13 12 11 11 11 11 11 12 12 13 13 12 10 9 9 8 9 9 10 10 10 9 9 9 8 8 7 7 7 7 7 7 7 7 6 5 4 4 4 4 4 4
23 23 23 22 22 21 20 19 17 16 15 14 14 15 15 16 16 17 17 17 17 17 16 16 16 16 15 14 13 12 12 11 11 12 12 12 12 11 9 7 7 7 7 8 8 9 9 9 9 9 8 8 8 8 8 9 9 9 9 9 8 8 7 6 5 6 6 6 7
22 22 22 22 21 20 19 18 17 15 14 13 13 14 15 16 16 17 17 17 16 17 17 17 16 16 16 15 14 13 13 12 12 13 13 12 11 9 6 5 5 6 7 7 8 8 9 9 8 8 8 8 8 9 9 10 11 11 11 11 11 10 9 9 8 8 9 9 9
22 22 21 21 20 19 18 17 15 14 13 13 13 14 15 16 16 17 17 16 16 17 17 17 17 16 16 15 14 14 13 13 13 13 13 11 9 5 3 3 4 6 7 8 9 9 9 10 10 9 9 9 9 10 11 12 13 13 14 14 13 13 12 12 12 12 12 12 12
22 21 21 20 20 19 17 16 14 13 12 12 13 14 15 16 16 16 16 16 16 16 17 17 16 16 15 15 14 14 13 13 13 12 11 9 6 3 2 3 5 7 8 9 10 11 12 12 12 12 11 11 11 12 13 14 15 15 16 16 16 16 15 15 15 15 15 15 15
21 21 21 20 19 18 17 15 13 12 12 12 13 14 15 16 16 16 15 15 15 15 16 16 16 15 15 15 14 13 13 12 12 11 9 7 5 4 4 5 6 8 10 11 13 14 15 15 15 15 15 15 15 15 16 16 16 17 17 17 17 17 17 16 16 17 17 17 17
21 20 20 19 18 17 16 14 13 12 12 12 13 14 15 15 15 15 14 14 14 14 14 14 15 15 15 14 14 13 12 12 11 10 8 7 5 5 6 7 9 11 12 14 15 16 16 16 16 17 17 17 17 17 17 17 17 16 16 16 15 15 15 15 15 15 16 16 17
20 20 19 19 18 17 16 14 13 12 12 13 13 14 14 14 14 14 13 13 12 12 12 13 13 14 14 14 13 13 12 11 11 10 9 8 7 7 9 10 12 14 15 16 16 16 15 15 14 14 15 15 15 15 15 14 14 13 13 13 13 13 14 14 15 15 16 16 16
19 19 19 18 17 17 15 14 12 12 12 13 13 14 14 14 14 13 13 12 12 11 11 11 12 12 13 13 13 13 12 12 11 10 10 10 10 10 12 13 14 15 16 16 15 13 12 11 10 10 10 10 10 10 10 10 10 11 11 12 13 14 15 15 16 16 17 17 18
19 19 18 18 17 16 15 13 12 12 12 12 13 13 13 13 13 12 12 12 11 11 11 11 11 11 12 12 13 13 13 12 12 11 11 11 11 12 13 13 14 14 13 12 11 10 10 10 10 10 10 10 10 10 10 10 11 11 12 13 14 15 16 16 17 17 18 18 18
18 18 18 17 16 15 14 13 12 12 12 12 12 13 13 13 12 12 12 12 11 11 11 11 11 11 11 12 12 13 13 13 13 13 12 12 11 11 11 11 11 10 10 9 9 9 9 10 10 10 10 10 10 10 11 11 12 12 13 14 15 15 16 16 17 17 18 18 19
17 18 17 17 16 15 14 12 12 11 11 11 11 12 12 12 11 11 11 12 12 12 12 12 12 12 12 12 12 13 14 14 14 14 13 12 10 10 9 8 8 7 7 7 7 8 8 9 9 9 10 10 11 11 12 13 13 14 14 15 15 16 16 17 17 18 18 18 19
17 17 17 16 15 14 13 11 11 10 10 10 10 10 11 11 11 11 12 13 13 13 13 13 13 13 13 13 13 13 14 14 14 14 13 11 9 8 7 6 6 6 6 6 7 8 8 9 10 11 11 12 13 13 14 15 15 15 16 16 16 17 18 18 18 19 19 19 19
16 17 16 15 14 12 11 10 9 9 9 9 9 9 10 10 10 11 12 13 14 14 14 14 14 14 14 14 14 14 14 14 13 13 12 10 9 7 6 6 6 6 7 7 8 9 10 11 12 13 13 14 15 15 16 16 17 17 17 18 18 19 19 19 20 20 20 20 20
16 16 15 14 12 11 10 9 8 8 8 8 8 8 9 9 10 11 12 13 14 15 15 15 15 15 15 15 15 14 14 13 12 11 10 9 8 7 6 7 7 8 8 9 10 11 12 13 13 14 15 15 16 16 17 17 18 18 18 19 19 20 20 21 21 21 21 21 21
15 15 14 12 11 10 9 8 7 7 7 7 8 8 9 9 10 11 12 13 14 15 15 16 16 15 15 15 14 14 13 12 11 10 9 8 7 7 7 8 8 9 10 11 12 12 13 14 14 15 16 16 17 17 18 18 18 19 19 20 20 21 21 22 22 22 23 23 23
14 14 13 12 10 9 8 7 7 7 7 7 8 8 9 9 10 11 12 13 14 14 15 16 16 16 15 15 14 13 12 11 10 8 8 7 7 8 8 9 9 10 11 12 13 13 14 15 15 16 16 17 17 18 18 18 19 19 20 20 21 21 22 22 23 23 23 24 24
14 13 12 11 9 8 8 7 7 7 7 7 8 9 9 10 11 11 12 13 14 14 15 15 16 16 15 14 13 12 11 9 9 8 8 8 8 8 9 9 10 11 12 13 14 15 15 16 16 17 17 18 18 18 18 18 19 19 20 21 22 22 23 23 24 24 24 24 24
13 12 11 10 9 8 7 7 7 7 7 8 8 9 10 11 11 12 13 13 14 14 15 15 15 15 15 14 13 11 10 8 8 8 8 8 8 8 9 10 11 13 13 14 15 15 16 16 17 18 18 18 18 18 18 19 19 20 21 22 23 23 24 25 25 25 24 24 23
12 11 11 10 9 8 7 7 7 7 7 8 9 10 10 11 12 13 13 14 14 14 15 15 15 15 15 14 12 10 9 8 8 8 8 8 8 9 10 11 13 14 14 14 15 15 16 16 17 17 18 18 18 18 19 19 20 21 22 23 24 24 25 26 25 24 23 22 21
11 11 10 9 9 8 7 7 7 7 8 8 9 10 11 12 13 13 14 14 14 15 15 15 15 15 15 14 12 10 9 8 8 8 7 8 8 10 11 13 14 14 14 14 15 16 16 17 17 17 17 17 18 18 19 20 21 22 23 24 24 24 25 25 25 23 22 21 19
11 10 10 9 9 8 7 7 8 8 8 9 10 11 12 13 13 14 14 15 15 15 15 16 16 16 15 14 12 10 9 8 8 7 7 8 10 11 13 14 14 14 14 14 15 16 16 17 17 17 17 18 18 19 19 20 21 23 23 23 22 22 22 23 23 22 21 20 19
10 10 9 9 8 8 8 8 8 8 9 10 11 12 13 13 14 14 15 15 15 16 16 16 16 16 16 15 12 10 8 7 7 7 8 9 11 13 14 15 15 14 13 14 14 15 16 16 16 17 18 18 18 19 19 19 20 21 21 21 20 20 20 20 21 21 20 19 19
9 10 10 9 8 8 8 9 9 9 10 11 12 13 13 14 15 15 15 15 16 16 16 16 16 16 16 15 12 9 7 6 6 7 9 11 12 13 14 14 14 13 13 13 14 15 15 15 15 16 17 17 17 18 19 19 19 19 19 19 19 19 19 19 19 19 19 19 18
9 10 10 9 9 9 9 9 10 10 11 12 13 14 14 15 15 15 15 16 16 16 16 16 16 16 15 13 11 8 6 6 6 8 10 12 13 13 14 14 14 14 14 13 14 14 14 14 14 14 15 16 16 16 17 17 18 18 18 18 18 19 19 19 18 18 18 17 17
9 9 9 9 9 9 9 10 10 11 12 13 13 14 15 15 16 16 15 15 15 15 15 15 15 15 14 12 9 6 5 5 7 9 11 12 13 13 13 13 14 14 13 13 12 12 12 13 13 13 14 15 16 17 17 18 18 18 18 18 18 19 19 18 18 17 17 16 17
8 9 9 10 10 10 10 10 11 11 12 13 14 15 15 15 15 15 15 15 15 15 15 15 14 14 13 11 8 5 5 6 8 10 11 12 12 13 13 13 13 13 13 12 11 11 11 12 12 13 14 15 17 18 19 20 20 19 18 18 18 19 18 17 17 16 16 16 16
8 9 9 10 10 10 10 11 11 12 13 13 14 15 15 15 15 15 15 15 15 15 15 14 13 12 11 9 7 5 5 7 8 10 11 12 12 13 13 13 13 13 12 12 11 10 11 12 13 14 15 16 18 20 21 21 20 19 18 18 18 18 18 17 16 16 16 16 16
8 9 9 10 10 11 11 11 12 12 13 14 14 14 15 15 15 15 15 15 15 15 14 13 12 10 9 8 6 6 6 7 8 10 11 11 12 12 13 13 13 13 13 12 12 11 12 13 14 15 16 18 19 21 21 21 20 18 17 17 18 17 17 17 17 16 16 16 16
9 9 10 10 11 11 11 12 12 13 13 14 14 14 14 15 15 15 15 15 15 14 13 12 10 9 8 7 6 6 6 7 8 9 10 11 12 13 13 13 13 13 13 13 13 13 14 15 16 17 18 18 20 20 20 20 18 17 18 18 18 18 18 17 17 16 16 16 16
9 9 10 11 11 11 12 12 12 13 13 14 14 14 14 14 15 15 15 14 14 13 11 10 9 8 8 7 6 6 6 7 8 10 11 12 12 13 13 13 14 14 14 14 14 14 15 16 18 19 19 18 18 18 18 18 17 18 18 19 19 18 18 17 16 16 15 15 16
9 10 11 11 12 12 12 12 12 13 13 13 13 14 14 15 14 14 14 13 12 11 9 9 9 9 9 8 7 7 7 8 9 10 11 12 13 13 14 14 14 14 14 15 15 16 17 18 19 19 19 18 17 16 16 17 17 18 18 19 19 18 18 17 16 15 15 15 15
9 10 11 11 12 12 12 12 12 13 13 13 13 14 14 14 14 13 12 11 10 8 8 9 10 11 10 9 8 8 8 9 10 10 11 12 13 13 14 14 14 15 15 15 16 16 17 18 19 19 19 17 17 17 17 17 17 18 18 18 18 18 17 16 16 15 15 15 15
10 10 11 12 12 12 12 12 12 12 12 13 13 14 14 13 13 12 10 9 7 7 8 10 11 11 11 10 9 9 9 10 10 10 11 12 12 13 14 14 15 15 15 16 16 17 18 19 19 19 18 17 17 16 16 17 17 18 18 18 18 17 17 16 15 15 15 15 15
10 10 11 11 12 12 12 12 12 12 12 13 13 13 13 12 11 10 8 7 6 7 8 10 10 11 11 11 11 11 10 10 9 10 11 11 12 13 13 14 14 15 15 16 16 17 18 19 19 19 18 17 16 16 16 16 17 18 18 18 18 17 17 16 16 15 15 15 15
10 11 11 11 12 12 12 11 11 12 12 12 13 12 12 10 9 7 6 5 5 7 8 9 10 11 11 12 11 11 10 9 9 10 11 11 12 13 13 14 14 14 15 15 16 17 19 19 19 18 17 17 16 15 15 16 17 17 18 18 18 18 17 17 16 15 15 15 15
11 11 11 11 11 11 12 11 11 11 12 12 12 11 10 9 7 5 4 4 5 7 8 9 10 10 11 11 11 9 8 8 9 10 11 12 12 13 13 13 14 14 14 15 16 17 18 19 18 17 16 16 16 15 15 16 16 17 18 18 18 18 17 17 16 15 15 15 15
Wind_Direction
19 17 15 14 12 11 10 10 10 10 9 8 3 359 355 354 351 349 348 348 345 342 340 339 338 337 337 338 340 339 338 337 337 338 338 338 339 339 340 341 343 344 345 346 348 350 353 355 358 1 4 9 16 22 28 33 38 42 44 45 48 51 51 51 50 51 52 53 51
17 15 14 12 11 10 9 8 7 7 6 5 3 0 359 359 358 355 352 351 350 348 345 343 342 339 336 335 337 338 338 337 336 337 338 338 338 339 340 342 344 345 348 352 358 4 8 10 11 12 16 21 25 28 30 32 35 37 36 34 34 35 36 37 38 41 45 46 45
16 14 13 12 11 10 8 7 5 4 4 3 2 2 3 4 3 1 358 356 355 353 351 348 345 342 338 335 335 337 339 338 338 338 338 338 337 338 341 344 347 350 356 5 13 19 21 21 20 20 21 23 24 24 23 23 23 22 18 11 8 7 6 6 11 17 23 23 22
15 14 13 12 10 9 7 5 3 2 2 2 3 4 6 8 7 4 2 1 360 358 356 352 349 346 343 338 336 337 340 341 340 338 336 334 334 336 341 347 353 1 11 21 26 27 27 26 24 21 20 21 20 17 13 9 5 360 352 346 345 342 338 334 335 333 328 316 313
15 14 12 11 9 7 5 3 1 0 1 2 5 8 10 10 9 8 6 5 4 2 360 358 356 353 349 345 341 340 341 343 341 335 331 329 330 333 339 351 3 14 23 28 28 26 24 23 20 17 15 12 9 5 359 353 347 340 335 332 331 328 323 315 306 299 296 291 290
15 13 12 10 8 6 4 2 0 359 1 4 9 12 13 13 13 12 11 9 7 5 4 4 3 1 357 352 348 345 344 343 339 332 327 326 328 331 339 356 15 23 24 23 20 17 15 13 10 8 5 1 355 349 344 340 335 330 326 324 320 318 313 305 296 290 287 284 281
15 13 11 9 8 5 3 1 359 359 2 8 13 16 17 16 16 16 14 12 10 9 10 10 9 6 2 358 353 350 347 343 337 331 328 327 327 331 341 8 18 15 10 8 5 3 1 358 355 351 348 346 340 336 333 330 326 323 320 316 313 310 306 300 295 290 287 284 281
14 12 11 9 7 5 2 0 359 1 6 13 16 18 18 18 18 17 16 15 15 15 14 14 12 10 6 2 358 355 351 345 339 334 331 330 330 339 5 16 2 355 353 350 348 346 343 339 335 331 328 326 323 322 321 320 318 315 312 310 307 305 301 296 293 291 289 288 285
14 12 11 9 7 5 3 1 0 3 10 16 18 18 18 19 19 19 19 19 19 18 17 15 13 12 10 7 4 360 355 349 343 339 337 335 334 340 353 349 344 341 339 336 333 331 327 323 320 316 312 309 307 308 310 312 311 309 307 306 304 302 300 296 293 291 290 290 288
14 12 11 9 7 6 4 2 3 6 11 16 17 17 18 19 20 22 22 22 22 20 18 15 13 13 12 11 8 4 359 353 349 347 345 344 341 338 337 335 334 331 329 326 323 321 318 314 309 305 302 301 300 301 302 304 305 305 305 305 305 305 304 302 299 297 294 291 289
15 13 12 10 8 6 4 4 6 9 12 14 15 16 17 19 21 23 24 24 23 20 17 14 12 12 12 11 8 5 1 358 355 353 350 347 342 336 332 329 327 324 323 321 319 317 314 309 305 301 299 297 297 298 299 301 303 305 307 308 311 314 316 317 316 313 308 301 295
17 15 12 11 8 7 5 5 8 11 12 13 13 15 17 18 19 21 23 23 21 18 15 13 10 8 8 7 5 3 360 357 355 352 347 341 335 330 326 324 322 321 320 320 320 319 316 313 309 305 303 302 302 303 306 309 312 315 319 323 326 329 331 331 330 327 322 316 309
18 16 13 11 9 7 6 6 9 12 13 12 12 13 15 17 17 18 19 17 15 12 9 8 5 3 2 1 359 357 355 353 349 345 340 334 329 325 323 321 321 321 322 324 326 329 331 333 332 330 329 329 329 331 333 335 338 339 340 341 340 338 335 332 329 326 323 320 316
19 17 15 12 10 8 7 8 11 13 13 12 11 12 13 15 15 14 13 10 7 4 1 358 358 357 356 354 353 352 350 348 344 340 336 332 328 325 323 323 324 326 329 334 341 351 360 7 9 8 7 7 7 6 3 359 355 351 347 344 340 335 331 327 324 322 319 318 315
20 17 15 13 11 8 7 9 11 13 14 13 11 10 11 12 12 10 5 1 359 357 354 352 351 351 350 349 348 348 347 346 344 341 338 336 332 330 328 329 332 336 343 351 360 7 12 15 15 14 12 11 8 4 359 353 348 343 340 336 332 328 325 322 320 319 317 316 314
19 17 15 13 11 9 8 9 11 13 13 13 11 10 9 8 7 4 0 357 355 354 353 351 348 347 347 347 346 345 346 346 345 344 342 342 340 339 338 340 345 350 356 1 4 4 2 0 359 358 357 355 352 348 343 339 335 332 329 326 323 321 319 318 317 316 315 313 312
18 16 14 13 11 10 9 10 10 11 11 11 11 9 7 4 2 0 359 357 355 355 354 352 349 347 347 347 347 346 345 345 345 344 344 345 347 348 350 353 357 359 360 358 356 354 352 349 348 347 346 344 341 338 334 331 328 325 322 319 317 315 315 314 315 315 314 313 313
17 15 13 12 11 10 9 8 8 7 6 7 7 6 4 0 358 357 357 357 356 355 354 352 350 349 349 349 349 348 347 345 344 343 343 344 348 351 355 358 359 360 358 357 354 352 350 348 347 345 344 341 338 335 332 329 325 322 319 317 315 315 314 315 316 316 317 316 315
15 14 13 12 10 8 7 5 2 1 360 360 360 360 358 356 353 352 353 354 353 353 351 350 349 348 349 349 349 348 347 345 343 341 342 343 346 351 355 356 356 356 356 356 355 354 352 349 347 345 342 340 337 334 331 328 325 322 320 319 318 318 318 318 318 319 319 319 318
14 13 12 10 8 5 3 359 355 352 351 351 351 351 350 349 348 348 349 349 349 348 347 346 345 345 345 346 346 346 345 343 340 340 341 343 346 349 352 353 353 352 352 352 353 352 350 348 346 344 342 339 337 334 332 329 327 325 324 324 324 324 323 322 321 320 320 319 318
13 12 10 7 4 0 356 351 346 343 341 341 341 342 342 342 342 343 343 342 342 342 342 342 341 340 341 341 342 342 340 338 336 336 338 341 343 345 347 348 349 349 349 349 350 350 349 348 346 344 343 341 338 336 334 333 331 331 330 330 329 328 327 326 325 323 321 320 318
11 10 7 3 358 354 348 343 338 334 332 333 333 335 335 336 337 337 337 336 336 337 338 338 337 336 336 337 337 336 333 331 329 330 333 336 339 341 343 345 347 348 349 350 351 351 350 349 347 345 344 342 340 338 337 336 336 335 334 333 332 331 330 328 327 325 323 321 319
9 7 4 358 353 347 342 336 331 327 326 327 329 330 332 332 333 332 332 332 332 333 334 334 334 334 333 333 332 329 324 321 321 324 327 331 335 340 344 347 349 351 353 354 354 353 352 350 348 346 344 343 342 340 338 338 338 337 336 335 334 332 331 329 328 326 324 322 320
7 4 359 353 347 341 334 329 324 322 322 324 326 328 329 330 330 330 330 330 330 331 332 333 333 332 331 330 327 321 314 310 315 320 326 331 338 344 349 351 353 355 356 356 355 353 352 350 348 346 345 343 341 339 338 338 338 337 336 335 334 332 330 328 327 325 323 322 320
5 1 355 347 340 333 327 323 320 320 321 322 324 326 327 328 328 329 329 329 330 330 331 333 333 332 330 328 324 315 307 305 312 321 330 338 345 350 353 355 355 355 356 355 353 351 349 347 346 345 344 342 340 339 338 337 336 336 335 334 333 331 329 327 325 324 322 320 319
1 356 349 342 334 327 320 317 317 317 318 319 321 323 324 325 326 327 328 329 330 331 332 332 333 332 330 328 322 312 304 304 313 325 338 347 352 354 354 355 354 354 352 352 350 348 346 345 343 342 342 341 339 338 337 336 335 335 334 333 331 329 327 325 323 321 320 319 318
357 351 344 337 329 320 314 313 313 314 316 317 319 320 322 323 324 325 326 328 329 330 332 333 333 332 331 328 322 312 302 305 318 333 345 351 354 354 353 352 352 351 350 348 347 345 344 343 342 341 340 339 338 337 336 335 334 334 333 332 330 328 325 323 321 320 319 318 318
350 345 339 332 322 314 310 311 311 312 315 316 318 319 319 320 322 323 325 326 328 330 332 333 333 332 330 328 323 313 303 308 325 341 349 351 352 351 350 350 350 349 347 345 344 344 343 342 342 340 339 337 336 336 335 334 333 333 331 330 328 327 325 323 321 320 319 318 319
344 340 335 326 317 311 309 309 310 312 314 316 316 317 318 320 321 322 323 325 327 330 331 332 331 330 329 328 325 316 308 315 333 346 350 350 348 347 347 348 349 347 345 343 342 342 342 342 341 339 337 335 333 333 333 333 332 331 330 329 328 327 325 323 321 320 320 320 320
338 334 328 320 313 309 308 308 310 312 314 315 316 318 319 321 322 323 323 325 327 329 330 330 329 328 328 329 327 319 313 324 339 346 347 345 344 344 345 346 346 345 343 342 341 341 341 340 340 338 335 330 329 329 329 330 330 330 329 328 328 327 326 324 322 321 321 321 321
329 326 320 314 309 306 306 307 309 311 313 315 318 320 321 323 323 324 324 324 325 326 327 327 327 327 329 331 330 322 318 329 339 342 341 339 340 341 342 343 342 341 340 339 338 338 338 337 337 336 333 328 327 326 327 327 328 328 328 328 328 328 327 325 323 322 322 322 322
320 318 313 308 304 303 304 306 308 311 313 316 319 321 323 324 324 324 324 323 324 325 325 325 326 328 332 335 332 323 319 327 334 335 335 335 337 338 339 339 339 338 337 336 334 334 334 333 333 333 332 328 326 325 325 326 327 327 327 327 327 327 326 325 322 321 321 321 321
312 310 306 302 300 300 302 305 308 311 314 317 320 322 323 325 325 325 325 324 324 324 324 324 327 332 337 338 328 316 314 321 326 328 330 332 335 337 338 338 337 337 335 334 331 330 330 330 330 331 331 328 325 324 325 326 326 327 327 327 327 326 324 323 320 319 319 319 320
304 302 299 297 297 298 301 304 307 311 315 318 321 323 325 326 327 327 326 325 325 324 324 325 331 338 343 338 322 306 305 314 321 325 329 332 335 338 338 337 336 335 334 332 330 329 329 330 331 332 331 328 326 325 325 327 326 326 326 325 325 324 323 322 320 318 318 318 320
297 294 292 292 293 296 300 304 308 312 316 319 321 324 326 328 329 328 327 326 326 326 327 331 338 342 340 331 313 299 299 310 318 325 329 333 337 338 337 336 334 333 332 331 330 330 330 331 332 333 332 329 326 325 326 327 326 325 325 324 324 323 322 321 320 319 318 319 321
291 289 288 288 291 295 300 305 309 313 316 319 321 325 328 330 331 330 329 328 329 331 336 343 344 341 333 321 305 297 301 311 320 326 331 335 338 338 336 334 332 331 331 331 331 331 332 333 334 335 334 331 328 327 327 328 327 326 325 324 323 323 323 322 321 320 319 321 323
286 285 285 287 290 295 301 306 310 313 315 318 322 326 329 331 332 331 331 331 334 342 351 352 347 341 334 323 311 305 309 316 323 329 333 336 337 337 335 333 331 330 330 331 331 332 333 335 336 337 336 332 329 328 328 328 328 327 326 326 325 325 325 324 323 321 321 322 324
281 281 283 286 290 296 301 307 310 312 314 318 323 327 330 331 332 332 332 334 343 356 360 354 348 344 341 335 326 320 318 321 327 332 336 337 337 336 334 331 329 329 330 330 331 332 334 336 338 339 338 334 330 329 329 329 329 329 329 328 328 328 328 328 326 324 323 323 324
277 278 282 286 291 297 302 306 309 311 314 318 323 327 329 331 332 332 332 337 351 360 358 351 346 344 342 339 333 327 323 325 331 337 340 339 338 336 334 331 328 328 329 330 332 334 336 338 340 341 339 336 333 331 330 330 330 330 330 330 330 330 330 329 328 325 324 324 324
274 277 281 286 292 297 302 305 307 310 314 319 323 326 328 329 329 329 330 340 352 355 352 346 342 340 337 334 329 324 324 330 338 343 344 341 339 337 334 331 328 327 329 331 333 335 337 340 342 342 341 339 336 334 332 331 331 332 332 332 332 331 330 329 328 326 325 325 325
272 276 280 286 292 297 301 304 306 309 314 319 322 324 325 325 324 324 327 339 348 349 346 342 338 335 331 327 323 323 328 338 344 346 346 344 340 337 333 330 328 328 329 332 334 337 340 342 344 344 343 341 339 336 335 334 333 333 333 333 332 331 330 329 328 327 327 327 328